CPA178 YMML-VHHH

Flight info

Callsign CPA178
Flight time 8h 33m
Altitude 30000
Route KEPPA H164 IBABI DCT ANUXU DCT 2641S13600E 2345S13414E DCT DIGLA/N0502F320 A461 MONIC DCT 1432S13122E 1221S13045E DCT BUTPA A461 AMN/N0499F340 A461 ZAM A583 SABNO V542 SUKER/N0488F300 V542 HOCKY/N0435F230 V542 BETTY
Aircraft B77W/H-SDE1E2E3FGHIJ2J3J4J5M1RWXY/LB1D1

Departure

Time 2026-05-07 16:10
Airport Melbourne Airport (YMML)

Arrival

Time 2026-05-08 00:43
Airport Hong Kong International Airport (VHHH)
Time Latitude Longitude Altitude Speed Heading
2026-05-07 15:41 -37.66901 144.84319 394 ft 0 kts 82°
2026-05-07 16:00 -37.66902 144.84316 394 ft 2 kts 84°
2026-05-07 16:00 -37.66904 144.84319 394 ft 4 kts 99°
2026-05-07 16:00 -37.66906 144.84287 391 ft 4 kts 80°
2026-05-07 16:00 -37.66911 144.84253 393 ft 4 kts 80°
2026-05-07 16:01 -37.66915 144.84223 393 ft 4 kts 61°
2026-05-07 16:01 -37.66937 144.84215 392 ft 4 kts 338°
2026-05-07 16:01 -37.66954 144.84223 392 ft 4 kts 348°
2026-05-07 16:01 -37.66963 144.84225 391 ft 2 kts 352°
2026-05-07 16:04 -37.66930 144.84218 392 ft 12 kts 351°
2026-05-07 16:05 -37.66797 144.84193 395 ft 26 kts 351°
2026-05-07 16:05 -37.66721 144.84091 399 ft 16 kts 285°
2026-05-07 16:05 -37.66681 144.83974 401 ft 16 kts 338°
2026-05-07 16:05 -37.66570 144.83944 406 ft 18 kts 350°
2026-05-07 16:06 -37.66424 144.83914 410 ft 23 kts 351°
2026-05-07 16:06 -37.66267 144.83882 411 ft 23 kts 350°
2026-05-07 16:06 -37.66109 144.83856 415 ft 23 kts 352°
2026-05-07 16:06 -37.65951 144.83826 417 ft 23 kts 351°
2026-05-07 16:07 -37.65794 144.83795 422 ft 23 kts 351°
2026-05-07 16:07 -37.65638 144.83765 425 ft 23 kts 356°
2026-05-07 16:07 -37.65551 144.83907 417 ft 23 kts 63°
2026-05-07 16:07 -37.65441 144.83932 420 ft 16 kts 346°
2026-05-07 16:08 -37.65329 144.83899 420 ft 16 kts 347°
2026-05-07 16:08 -37.65225 144.83845 427 ft 16 kts 310°
2026-05-07 16:08 -37.65262 144.83742 428 ft 16 kts 208°
2026-05-07 16:08 -37.65317 144.83628 433 ft 16 kts 259°
2026-05-07 16:09 -37.65348 144.83505 427 ft 14 kts 212°
2026-05-07 16:09 -37.65493 144.83523 431 ft 40 kts 171°
2026-05-07 16:09 -37.66011 144.83616 415 ft 109 kts 172°
2026-05-07 16:09 -37.66971 144.83798 392 ft 168 kts 172°
2026-05-07 16:10 -37.68231 144.84047 473 ft 195 kts 175°
2026-05-07 16:10 -37.69561 144.84297 996 ft 195 kts 176°
2026-05-07 16:10 -37.70905 144.84546 1555 ft 193 kts 178°
2026-05-07 16:10 -37.72190 144.84793 2266 ft 182 kts 180°
2026-05-07 16:11 -37.73443 144.84945 2609 ft 181 kts 194°
2026-05-07 16:11 -37.74553 144.84328 2752 ft 179 kts 231°
2026-05-07 16:11 -37.74949 144.82813 2907 ft 196 kts 267°
2026-05-07 16:11 -37.74777 144.81099 3316 ft 198 kts 268°
2026-05-07 16:12 -37.74726 144.79305 3530 ft 213 kts 265°
2026-05-07 16:12 -37.74679 144.77394 3924 ft 220 kts 266°
2026-05-07 16:12 -37.74578 144.75409 4308 ft 233 kts 268°
2026-05-07 16:12 -37.74455 144.73419 4785 ft 237 kts 269°
2026-05-07 16:13 -37.74039 144.71293 5214 ft 255 kts 294°
2026-05-07 16:13 -37.72708 144.69630 5450 ft 285 kts 322°
2026-05-07 16:13 -37.71009 144.68381 6118 ft 283 kts 322°
2026-05-07 16:13 -37.69297 144.67063 6507 ft 293 kts 321°
2026-05-07 16:14 -37.67562 144.65710 7117 ft 293 kts 321°
2026-05-07 16:14 -37.65843 144.64364 7679 ft 296 kts 320°
2026-05-07 16:14 -37.64058 144.62949 7957 ft 312 kts 320°
2026-05-07 16:14 -37.62168 144.61444 8137 ft 331 kts 320°
2026-05-07 16:15 -37.60158 144.59849 8309 ft 351 kts 321°
2026-05-07 16:15 -37.58031 144.58170 8540 ft 369 kts 321°
2026-05-07 16:15 -37.55823 144.56438 9033 ft 378 kts 321°
2026-05-07 16:15 -37.53565 144.54675 9630 ft 385 kts 321°
2026-05-07 16:16 -37.51270 144.52887 10287 ft 389 kts 321°
2026-05-07 16:16 -37.48953 144.51084 10860 ft 393 kts 321°
2026-05-07 16:16 -37.46617 144.49265 11459 ft 397 kts 321°
2026-05-07 16:16 -37.44250 144.47421 12079 ft 403 kts 321°
2026-05-07 16:17 -37.41883 144.45578 12748 ft 406 kts 321°
2026-05-07 16:17 -37.39468 144.43698 13442 ft 410 kts 321°
2026-05-07 16:17 -37.37030 144.41802 14138 ft 413 kts 322°
2026-05-07 16:17 -37.34576 144.39894 14739 ft 417 kts 322°
2026-05-07 16:18 -37.32102 144.37972 15391 ft 419 kts 322°
2026-05-07 16:18 -37.29613 144.36041 16053 ft 421 kts 322°
2026-05-07 16:18 -37.27117 144.34105 16714 ft 423 kts 322°
2026-05-07 16:18 -37.24598 144.32153 17356 ft 426 kts 322°
2026-05-07 16:19 -37.22067 144.30192 17973 ft 429 kts 322°
2026-05-07 16:19 -37.19507 144.28211 18575 ft 433 kts 322°
2026-05-07 16:19 -37.16940 144.26224 19114 ft 435 kts 322°
2026-05-07 16:19 -37.14353 144.24224 19632 ft 439 kts 322°
2026-05-07 16:20 -37.11742 144.22206 20083 ft 443 kts 323°
2026-05-07 16:20 -37.09097 144.20165 20531 ft 448 kts 323°
2026-05-07 16:20 -37.06429 144.18109 21003 ft 452 kts 323°
2026-05-07 16:20 -37.03736 144.16035 21493 ft 456 kts 323°
2026-05-07 16:21 -37.01064 144.13980 21970 ft 459 kts 323°
2026-05-07 16:21 -36.98328 144.11876 22431 ft 463 kts 323°
2026-05-07 16:21 -36.95566 144.09754 22881 ft 467 kts 323°
2026-05-07 16:21 -36.92790 144.07623 23324 ft 471 kts 323°
2026-05-07 16:22 -36.89979 144.05467 23766 ft 474 kts 323°
2026-05-07 16:22 -36.87159 144.03307 24158 ft 478 kts 323°
2026-05-07 16:22 -36.84316 144.01130 24524 ft 481 kts 323°
2026-05-07 16:22 -36.81452 143.98939 24902 ft 484 kts 323°
2026-05-07 16:23 -36.78587 143.96699 25258 ft 485 kts 320°
2026-05-07 16:23 -36.75860 143.94234 25609 ft 485 kts 316°
2026-05-07 16:23 -36.73214 143.91607 25960 ft 487 kts 315°
2026-05-07 16:23 -36.70596 143.88922 26289 ft 489 kts 315°
2026-05-07 16:24 -36.67960 143.86217 26628 ft 492 kts 315°
2026-05-07 16:24 -36.65321 143.83542 26953 ft 496 kts 315°
2026-05-07 16:24 -36.62626 143.80850 27273 ft 499 kts 316°
2026-05-07 16:24 -36.59896 143.78156 27592 ft 502 kts 316°
2026-05-07 16:25 -36.57145 143.75463 27906 ft 504 kts 316°
2026-05-07 16:25 -36.54380 143.72770 28377 ft 502 kts 316°
2026-05-07 16:25 -36.51633 143.70101 28817 ft 502 kts 316°
2026-05-07 16:25 -36.48870 143.67414 29065 ft 505 kts 316°
2026-05-07 16:26 -36.46093 143.64712 29260 ft 509 kts 316°
2026-05-07 16:26 -36.43295 143.61990 29486 ft 511 kts 316°
2026-05-07 16:26 -36.40521 143.59294 29763 ft 513 kts 316°
2026-05-07 16:26 -36.37703 143.56559 30076 ft 513 kts 316°
2026-05-07 16:27 -36.34887 143.53828 30257 ft 516 kts 316°
2026-05-07 16:27 -36.29227 143.48346 30282 ft 513 kts 316°
2026-05-07 16:28 -36.23676 143.42993 30301 ft 498 kts 316°
2026-05-07 16:28 -36.18237 143.37747 30309 ft 494 kts 315°
2026-05-07 16:29 -36.12811 143.32505 30329 ft 502 kts 316°
2026-05-07 16:29 -36.07280 143.27182 30317 ft 502 kts 316°
2026-05-07 16:30 -36.01769 143.21897 30318 ft 501 kts 316°
2026-05-07 16:30 -35.96271 143.16632 30313 ft 499 kts 316°
2026-05-07 16:31 -35.90840 143.11440 30333 ft 495 kts 316°
2026-05-07 16:31 -35.85411 143.06257 30327 ft 492 kts 316°
2026-05-07 16:32 -35.80009 143.01108 30335 ft 490 kts 316°
2026-05-07 16:32 -35.74620 142.95979 30337 ft 489 kts 316°
2026-05-07 16:33 -35.69224 142.90852 30352 ft 490 kts 316°
2026-05-07 16:33 -35.63819 142.85727 30356 ft 491 kts 316°
2026-05-07 16:34 -35.58431 142.80627 30348 ft 491 kts 316°
2026-05-07 16:34 -35.53003 142.75500 30335 ft 491 kts 317°
2026-05-07 16:35 -35.47587 142.70394 30344 ft 491 kts 317°
2026-05-07 16:35 -35.42203 142.65325 30364 ft 490 kts 317°
2026-05-07 16:36 -35.36788 142.60234 30352 ft 490 kts 317°
2026-05-07 16:36 -35.31402 142.55177 30363 ft 489 kts 317°
2026-05-07 16:37 -35.26000 142.50116 30359 ft 488 kts 317°
2026-05-07 16:37 -35.20599 142.45063 30374 ft 488 kts 317°
2026-05-07 16:38 -35.15189 142.40011 30378 ft 489 kts 317°
2026-05-07 16:38 -35.09777 142.34966 30378 ft 489 kts 317°
2026-05-07 16:39 -35.04350 142.29916 30369 ft 490 kts 318°
2026-05-07 16:39 -34.98967 142.24916 30381 ft 488 kts 318°
2026-05-07 16:40 -34.93558 142.19900 30386 ft 487 kts 318°
2026-05-07 16:40 -34.88149 142.14893 30386 ft 487 kts 318°
2026-05-07 16:41 -34.82787 142.09936 30395 ft 486 kts 318°
2026-05-07 16:41 -34.77393 142.04958 30397 ft 486 kts 318°
2026-05-07 16:42 -34.71988 141.99978 30399 ft 487 kts 319°
2026-05-07 16:42 -34.66581 141.95006 30403 ft 488 kts 319°
2026-05-07 16:43 -34.61193 141.90059 30410 ft 489 kts 319°
2026-05-07 16:43 -34.55761 141.85080 30411 ft 490 kts 319°
2026-05-07 16:44 -34.50312 141.80094 30394 ft 490 kts 319°
2026-05-07 16:44 -34.44860 141.75114 30407 ft 490 kts 319°
2026-05-07 16:45 -34.39407 141.70141 30418 ft 490 kts 319°
2026-05-07 16:45 -34.33990 141.65210 30414 ft 490 kts 319°
2026-05-07 16:46 -34.28540 141.60257 30422 ft 490 kts 319°
2026-05-07 16:46 -34.23098 141.55317 30423 ft 489 kts 319°
2026-05-07 16:47 -34.17653 141.50385 30425 ft 489 kts 319°
2026-05-07 16:47 -34.12202 141.45455 30420 ft 489 kts 320°
2026-05-07 16:48 -34.06766 141.40547 30424 ft 487 kts 320°
2026-05-07 16:48 -34.01345 141.35660 30424 ft 485 kts 320°
2026-05-07 16:49 -33.95979 141.30830 30424 ft 484 kts 320°
2026-05-07 16:49 -33.90574 141.25973 30430 ft 484 kts 320°
2026-05-07 16:50 -33.85177 141.21131 30431 ft 484 kts 320°
2026-05-07 16:50 -33.80689 141.17110 30427 ft 484 kts 320°
2026-05-07 16:51 -33.75284 141.12275 30436 ft 484 kts 320°
2026-05-07 16:51 -33.69872 141.07439 30431 ft 485 kts 320°
2026-05-07 16:52 -33.64450 141.02605 30436 ft 485 kts 321°
2026-05-07 16:52 -33.58779 140.98253 30450 ft 487 kts 327°
2026-05-07 16:53 -33.52894 140.94192 30436 ft 488 kts 327°
2026-05-07 16:53 -33.46997 140.90110 30440 ft 488 kts 327°
2026-05-07 16:54 -33.41129 140.86020 30440 ft 488 kts 327°
2026-05-07 16:54 -33.35259 140.81920 30447 ft 488 kts 327°
2026-05-07 16:55 -33.29384 140.77824 30446 ft 488 kts 327°
2026-05-07 16:55 -33.23512 140.73736 30446 ft 488 kts 327°
2026-05-07 16:56 -33.17643 140.69658 30451 ft 488 kts 327°
2026-05-07 16:56 -33.08873 140.63577 30443 ft 488 kts 327°
2026-05-07 16:57 -33.02999 140.59512 30456 ft 488 kts 328°
2026-05-07 16:57 -32.97119 140.55450 30452 ft 488 kts 328°
2026-05-07 16:58 -32.91239 140.51393 30456 ft 488 kts 328°
2026-05-07 16:58 -32.85354 140.47338 30464 ft 489 kts 328°
2026-05-07 16:59 -32.79459 140.43284 30464 ft 489 kts 328°
2026-05-07 16:59 -32.73587 140.39251 30462 ft 489 kts 328°
2026-05-07 17:00 -32.67686 140.35206 30464 ft 490 kts 328°
2026-05-07 17:00 -32.61777 140.31160 30471 ft 490 kts 328°
2026-05-07 17:01 -32.55899 140.27143 30471 ft 491 kts 328°
2026-05-07 17:01 -32.49959 140.23089 30468 ft 492 kts 328°
2026-05-07 17:02 -32.44030 140.19048 30466 ft 492 kts 328°
2026-05-07 17:02 -32.38086 140.15004 30470 ft 492 kts 329°
2026-05-07 17:03 -32.32153 140.10973 30469 ft 492 kts 329°
2026-05-07 17:03 -32.26206 140.06939 30469 ft 492 kts 329°
2026-05-07 17:04 -32.20298 140.02938 30464 ft 492 kts 329°
2026-05-07 17:04 -32.14361 139.98923 30466 ft 492 kts 329°
2026-05-07 17:05 -32.08415 139.94907 30470 ft 491 kts 329°
2026-05-07 17:05 -32.02486 139.90910 30464 ft 491 kts 329°
2026-05-07 17:06 -31.96556 139.86918 30469 ft 490 kts 329°
2026-05-07 17:06 -31.90668 139.82960 30466 ft 490 kts 329°
2026-05-07 17:07 -31.84749 139.78987 30463 ft 490 kts 329°
2026-05-07 17:07 -31.78825 139.75017 30464 ft 490 kts 330°
2026-05-07 17:08 -31.72893 139.71047 30463 ft 490 kts 330°
2026-05-07 17:08 -31.66946 139.67073 30466 ft 490 kts 330°
2026-05-07 17:09 -31.61040 139.63133 30463 ft 491 kts 330°
2026-05-07 17:09 -31.55102 139.59177 30468 ft 491 kts 330°
2026-05-07 17:10 -31.49166 139.55228 30459 ft 490 kts 330°
2026-05-07 17:10 -31.43242 139.51293 30460 ft 488 kts 330°
2026-05-07 17:11 -31.37332 139.47372 30459 ft 487 kts 330°
2026-05-07 17:11 -31.31480 139.43496 30460 ft 486 kts 330°
2026-05-07 17:12 -31.25595 139.39604 30466 ft 485 kts 329°
2026-05-07 17:12 -31.19725 139.35727 30462 ft 484 kts 329°
2026-05-07 17:13 -31.13862 139.31860 30462 ft 483 kts 329°
2026-05-07 17:13 -31.08000 139.28000 30463 ft 483 kts 329°
2026-05-07 17:14 -31.02136 139.24143 30466 ft 483 kts 329°
2026-05-07 17:14 -30.96286 139.20301 30471 ft 483 kts 329°
2026-05-07 17:15 -30.90462 139.16481 30462 ft 483 kts 329°
2026-05-07 17:15 -30.84590 139.12635 30464 ft 484 kts 329°
2026-05-07 17:16 -30.78748 139.08731 30463 ft 484 kts 326°
2026-05-07 17:16 -30.73188 139.04350 30466 ft 483 kts 324°
2026-05-07 17:17 -30.67634 138.99933 30462 ft 482 kts 324°
2026-05-07 17:17 -30.62126 138.95578 30453 ft 481 kts 324°
2026-05-07 17:18 -30.56598 138.91231 30450 ft 479 kts 324°
2026-05-07 17:18 -30.51076 138.86899 30453 ft 478 kts 324°
2026-05-07 17:19 -30.45570 138.82584 30452 ft 477 kts 324°
2026-05-07 17:19 -30.40067 138.78278 30443 ft 477 kts 324°
2026-05-07 17:20 -30.34560 138.73975 30451 ft 477 kts 324°
2026-05-07 17:20 -30.29088 138.69704 30450 ft 477 kts 324°
2026-05-07 17:21 -30.23577 138.65407 30449 ft 477 kts 324°
2026-05-07 17:21 -30.18063 138.61116 30446 ft 477 kts 324°
2026-05-07 17:22 -30.12555 138.56835 30450 ft 477 kts 324°
2026-05-07 17:22 -30.07059 138.52569 30621 ft 479 kts 324°
2026-05-07 17:23 -30.04299 138.50429 30985 ft 476 kts 324°
2026-05-07 17:23 -30.01548 138.48298 31402 ft 473 kts 324°
2026-05-07 17:23 -29.98816 138.46184 31804 ft 470 kts 324°
2026-05-07 17:23 -29.96105 138.44086 32161 ft 468 kts 324°
2026-05-07 17:24 -29.93406 138.41998 32374 ft 469 kts 324°
2026-05-07 17:24 -29.90682 138.39893 32406 ft 472 kts 324°
2026-05-07 17:24 -29.85260 138.35706 32434 ft 468 kts 324°
2026-05-07 17:25 -29.79862 138.31545 32440 ft 465 kts 324°
2026-05-07 17:25 -29.74481 138.27402 32445 ft 464 kts 324°
2026-05-07 17:26 -29.69108 138.23269 32439 ft 464 kts 324°
2026-05-07 17:26 -29.63764 138.19165 32445 ft 465 kts 324°
2026-05-07 17:27 -29.58370 138.15028 32440 ft 465 kts 324°
2026-05-07 17:27 -29.52971 138.10892 32441 ft 466 kts 324°
2026-05-07 17:28 -29.47562 138.06755 32431 ft 467 kts 324°
2026-05-07 17:28 -29.42184 138.02646 32437 ft 467 kts 324°
2026-05-07 17:29 -29.36770 137.98516 32435 ft 467 kts 325°
2026-05-07 17:29 -29.31354 137.94388 32434 ft 467 kts 325°
2026-05-07 17:30 -29.25934 137.90264 32437 ft 467 kts 325°
2026-05-07 17:30 -29.20548 137.86171 32437 ft 467 kts 325°
2026-05-07 17:31 -29.15139 137.82065 32429 ft 467 kts 325°
2026-05-07 17:31 -29.09721 137.77958 32429 ft 466 kts 325°
2026-05-07 17:32 -29.04310 137.73861 32433 ft 466 kts 325°
2026-05-07 17:32 -28.99806 137.70455 32430 ft 466 kts 325°
2026-05-07 17:33 -28.93512 137.65701 32432 ft 466 kts 325°
2026-05-07 17:33 -28.88090 137.61612 32431 ft 466 kts 325°
2026-05-07 17:34 -28.82672 137.57531 32429 ft 466 kts 325°
2026-05-07 17:34 -28.77250 137.53452 32430 ft 466 kts 325°
2026-05-07 17:35 -28.71868 137.49408 32426 ft 466 kts 325°
2026-05-07 17:35 -28.66429 137.45326 32424 ft 467 kts 325°
2026-05-07 17:36 -28.61000 137.41258 32422 ft 467 kts 325°
2026-05-07 17:36 -28.55578 137.37199 32426 ft 467 kts 325°
2026-05-07 17:37 -28.50184 137.33166 32419 ft 466 kts 325°
2026-05-07 17:37 -28.44761 137.29117 32422 ft 466 kts 325°
2026-05-07 17:38 -28.40251 137.25754 32421 ft 466 kts 325°
2026-05-07 17:38 -28.34834 137.21718 32418 ft 466 kts 325°
2026-05-07 17:39 -28.29412 137.17684 32417 ft 466 kts 325°
2026-05-07 17:39 -28.23994 137.13658 32413 ft 465 kts 325°
2026-05-07 17:40 -28.18574 137.09636 32415 ft 465 kts 325°
2026-05-07 17:40 -28.13159 137.05621 32412 ft 464 kts 325°
2026-05-07 17:41 -28.07786 137.01643 32412 ft 464 kts 325°
2026-05-07 17:41 -28.02380 136.97646 32420 ft 464 kts 325°
2026-05-07 17:42 -27.96973 136.93651 32412 ft 464 kts 325°
2026-05-07 17:42 -27.91553 136.89653 32413 ft 464 kts 325°
2026-05-07 17:43 -27.86145 136.85669 32408 ft 464 kts 325°
2026-05-07 17:43 -27.80768 136.81712 32410 ft 464 kts 325°
2026-05-07 17:44 -27.75356 136.77734 32410 ft 464 kts 325°
2026-05-07 17:44 -27.69935 136.73754 32406 ft 465 kts 325°
2026-05-07 17:45 -27.64511 136.69777 32400 ft 465 kts 325°
2026-05-07 17:45 -27.59080 136.65799 32406 ft 465 kts 325°
2026-05-07 17:46 -27.53653 136.61830 32404 ft 465 kts 325°
2026-05-07 17:46 -27.48227 136.57865 32402 ft 464 kts 325°
2026-05-07 17:47 -27.42800 136.53905 32402 ft 464 kts 325°
2026-05-07 17:47 -27.37402 136.49970 32402 ft 464 kts 325°
2026-05-07 17:48 -27.31981 136.46024 32401 ft 464 kts 325°
2026-05-07 17:48 -27.26555 136.42078 32397 ft 463 kts 325°
2026-05-07 17:49 -27.21142 136.38147 32399 ft 463 kts 325°
2026-05-07 17:49 -27.15728 136.34218 32399 ft 463 kts 325°
2026-05-07 17:50 -27.10348 136.30320 32396 ft 462 kts 325°
2026-05-07 17:50 -27.04931 136.26399 32396 ft 462 kts 325°
2026-05-07 17:51 -26.99521 136.22488 32398 ft 462 kts 325°
2026-05-07 17:51 -26.94148 136.18608 32395 ft 462 kts 325°
2026-05-07 17:52 -26.88746 136.14711 32390 ft 462 kts 325°
2026-05-07 17:52 -26.83343 136.10818 32392 ft 462 kts 325°
2026-05-07 17:53 -26.77927 136.06920 32391 ft 462 kts 325°
2026-05-07 17:53 -26.72518 136.03031 32384 ft 462 kts 325°
2026-05-07 17:54 -26.67080 135.99202 32387 ft 462 kts 328°
2026-05-07 17:54 -26.61457 135.95713 32391 ft 462 kts 329°
2026-05-07 17:55 -26.55843 135.92276 32388 ft 462 kts 329°
2026-05-07 17:55 -26.50196 135.88806 32389 ft 462 kts 329°
2026-05-07 17:56 -26.44562 135.85334 32380 ft 463 kts 329°
2026-05-07 17:56 -26.38929 135.81861 32387 ft 462 kts 329°
2026-05-07 17:57 -26.34252 135.78980 32385 ft 462 kts 329°
2026-05-07 17:57 -26.27664 135.74928 32385 ft 462 kts 329°
2026-05-07 17:58 -26.22070 135.71491 32382 ft 462 kts 329°
2026-05-07 17:58 -26.16437 135.68035 32382 ft 462 kts 329°
2026-05-07 17:59 -26.10813 135.64587 32385 ft 461 kts 329°
2026-05-07 17:59 -26.05184 135.61141 32379 ft 460 kts 329°
2026-05-07 18:00 -25.99567 135.57705 32378 ft 460 kts 329°
2026-05-07 18:00 -25.93995 135.54301 32377 ft 460 kts 329°
2026-05-07 18:01 -25.88380 135.50874 32377 ft 460 kts 329°
2026-05-07 18:01 -25.82777 135.47459 32378 ft 459 kts 328°
2026-05-07 18:02 -25.74374 135.42343 32372 ft 458 kts 328°
2026-05-07 18:03 -25.68782 135.38943 32371 ft 458 kts 328°
2026-05-07 18:03 -25.63191 135.35548 32367 ft 458 kts 328°
2026-05-07 18:04 -25.57637 135.32178 32359 ft 458 kts 328°
2026-05-07 18:04 -25.52053 135.28795 32367 ft 457 kts 328°
2026-05-07 18:05 -25.46468 135.25414 32367 ft 457 kts 328°
2026-05-07 18:05 -25.40919 135.22058 32363 ft 456 kts 328°
2026-05-07 18:06 -25.35345 135.18691 32363 ft 456 kts 328°
2026-05-07 18:06 -25.29770 135.15327 32365 ft 456 kts 328°
2026-05-07 18:07 -25.24192 135.11964 32361 ft 456 kts 328°
2026-05-07 18:07 -25.18629 135.08615 32359 ft 455 kts 328°
2026-05-07 18:08 -25.13063 135.05267 32363 ft 455 kts 328°
2026-05-07 18:08 -25.07541 135.01948 32361 ft 455 kts 328°
2026-05-07 18:09 -25.01976 134.98608 32370 ft 455 kts 328°
2026-05-07 18:09 -24.96400 134.95264 32358 ft 456 kts 328°
2026-05-07 18:10 -24.90821 134.91921 32362 ft 456 kts 328°
2026-05-07 18:10 -24.85271 134.88600 32362 ft 457 kts 328°
2026-05-07 18:11 -24.79680 134.85259 32350 ft 457 kts 328°
2026-05-07 18:11 -24.74101 134.81927 32356 ft 456 kts 328°
2026-05-07 18:12 -24.68522 134.78599 32349 ft 455 kts 328°
2026-05-07 18:12 -24.62952 134.75280 32346 ft 454 kts 328°
2026-05-07 18:13 -24.57398 134.71973 32345 ft 453 kts 328°
2026-05-07 18:13 -24.51891 134.68698 32346 ft 452 kts 328°
2026-05-07 18:14 -24.46356 134.65409 32336 ft 451 kts 328°
2026-05-07 18:14 -24.40835 134.62132 32340 ft 451 kts 328°
2026-05-07 18:15 -24.35320 134.58862 32342 ft 450 kts 328°
2026-05-07 18:15 -24.29831 134.55610 32334 ft 451 kts 328°
2026-05-07 18:16 -24.24300 134.52337 32344 ft 450 kts 327°
2026-05-07 18:16 -24.18783 134.49075 32338 ft 450 kts 327°
2026-05-07 18:17 -24.13259 134.45813 32334 ft 450 kts 327°
2026-05-07 18:17 -24.07780 134.42580 32326 ft 449 kts 327°
2026-05-07 18:18 -24.02278 134.39337 32326 ft 449 kts 327°
2026-05-07 18:18 -23.96783 134.36101 32336 ft 448 kts 327°
2026-05-07 18:19 -23.91289 134.32867 32304 ft 448 kts 327°
2026-05-07 18:19 -23.85812 134.29649 32320 ft 447 kts 327°
2026-05-07 18:20 -23.80345 134.26437 32325 ft 446 kts 327°
2026-05-07 18:20 -23.74862 134.23266 32325 ft 446 kts 329°
2026-05-07 18:21 -23.69089 134.20695 32315 ft 449 kts 333°
2026-05-07 18:21 -23.63270 134.18203 32325 ft 449 kts 333°
2026-05-07 18:22 -23.57463 134.15696 32319 ft 449 kts 333°
2026-05-07 18:22 -23.51689 134.13198 32300 ft 449 kts 333°
2026-05-07 18:23 -23.45892 134.10689 32314 ft 448 kts 333°
2026-05-07 18:23 -23.40082 134.08176 32306 ft 448 kts 333°
2026-05-07 18:24 -23.35268 134.06097 32310 ft 448 kts 333°
2026-05-07 18:24 -23.29466 134.03594 32294 ft 447 kts 332°
2026-05-07 18:25 -23.22749 134.00698 32302 ft 447 kts 332°
2026-05-07 18:25 -23.17900 133.98610 32306 ft 447 kts 332°
2026-05-07 18:26 -23.12159 133.96139 32301 ft 447 kts 332°
2026-05-07 18:26 -23.06373 133.93651 32294 ft 447 kts 333°
2026-05-07 18:27 -23.00579 133.91163 32294 ft 447 kts 333°
2026-05-07 18:27 -22.94784 133.88676 32294 ft 448 kts 333°
2026-05-07 18:28 -22.88994 133.86195 32283 ft 447 kts 332°
2026-05-07 18:28 -22.83211 133.83718 32282 ft 446 kts 332°
2026-05-07 18:29 -22.77439 133.81248 32289 ft 446 kts 332°
2026-05-07 18:29 -22.71697 133.78792 32251 ft 446 kts 332°
2026-05-07 18:30 -22.65918 133.76325 32271 ft 446 kts 332°
2026-05-07 18:30 -22.60145 133.73861 32287 ft 446 kts 332°
2026-05-07 18:31 -22.54372 133.71399 32287 ft 446 kts 332°
2026-05-07 18:31 -22.48599 133.68940 32270 ft 446 kts 332°
2026-05-07 18:32 -22.42827 133.66483 32268 ft 445 kts 332°
2026-05-07 18:32 -22.37052 133.64028 32272 ft 445 kts 332°
2026-05-07 18:33 -22.31319 133.61592 32272 ft 446 kts 332°
2026-05-07 18:33 -22.25541 133.59139 32250 ft 446 kts 332°
2026-05-07 18:34 -22.19761 133.56688 32265 ft 446 kts 332°
2026-05-07 18:34 -22.13975 133.54236 32263 ft 446 kts 332°
2026-05-07 18:35 -22.08191 133.51788 32234 ft 446 kts 332°
2026-05-07 18:35 -22.02413 133.49344 32253 ft 446 kts 332°
2026-05-07 18:36 -21.96637 133.46903 32254 ft 446 kts 332°
2026-05-07 18:36 -21.90891 133.44477 32244 ft 446 kts 332°
2026-05-07 18:37 -21.85107 133.42036 32239 ft 447 kts 332°
2026-05-07 18:37 -21.79312 133.39594 32252 ft 446 kts 332°
2026-05-07 18:38 -21.73525 133.37156 32241 ft 447 kts 332°
2026-05-07 18:38 -21.67766 133.34734 32218 ft 447 kts 332°
2026-05-07 18:39 -21.61966 133.32295 32230 ft 447 kts 331°
2026-05-07 18:39 -21.56163 133.29858 32236 ft 447 kts 331°
2026-05-07 18:40 -21.50367 133.27425 32227 ft 447 kts 331°
2026-05-07 18:40 -21.44609 133.25010 32214 ft 447 kts 331°
2026-05-07 18:41 -21.38813 133.22581 32233 ft 447 kts 331°
2026-05-07 18:41 -21.33006 133.20149 32222 ft 448 kts 331°
2026-05-07 18:42 -21.27020 133.18094 32227 ft 456 kts 338°
2026-05-07 18:42 -21.20860 133.16469 32210 ft 456 kts 338°
2026-05-07 18:43 -21.14700 133.14821 32214 ft 456 kts 338°
2026-05-07 18:43 -21.08580 133.13170 32217 ft 456 kts 338°
2026-05-07 18:44 -21.02416 133.11504 32228 ft 457 kts 338°
2026-05-07 18:44 -20.96247 133.09837 32206 ft 457 kts 338°
2026-05-07 18:45 -20.90070 133.08171 32212 ft 457 kts 338°
2026-05-07 18:45 -20.83938 133.06519 32204 ft 457 kts 338°
2026-05-07 18:46 -20.77783 133.04861 32198 ft 456 kts 338°
2026-05-07 18:46 -20.71626 133.03204 32199 ft 456 kts 338°
2026-05-07 18:47 -20.65473 133.01550 32197 ft 456 kts 338°
2026-05-07 18:47 -20.59306 132.99893 32195 ft 457 kts 338°
2026-05-07 18:48 -20.53146 132.98240 32178 ft 457 kts 338°
2026-05-07 18:48 -20.46971 132.96584 32184 ft 457 kts 338°
2026-05-07 18:49 -20.40796 132.94928 32182 ft 458 kts 338°
2026-05-07 18:49 -20.34607 132.93272 32145 ft 458 kts 337°
2026-05-07 18:50 -20.28455 132.91626 32168 ft 459 kts 337°
2026-05-07 18:50 -20.22262 132.89970 32174 ft 459 kts 337°
2026-05-07 18:51 -20.16060 132.88314 32176 ft 459 kts 337°
2026-05-07 18:51 -20.09853 132.86658 32150 ft 460 kts 337°
2026-05-07 18:52 -20.03649 132.85004 32162 ft 460 kts 337°
2026-05-07 18:52 -19.97430 132.83347 32165 ft 460 kts 337°
2026-05-07 18:53 -19.91251 132.81702 32160 ft 460 kts 337°
2026-05-07 18:53 -19.85042 132.80051 32158 ft 460 kts 337°
2026-05-07 18:54 -19.78824 132.78398 32156 ft 460 kts 337°
2026-05-07 18:54 -19.72603 132.76745 32162 ft 461 kts 337°
2026-05-07 18:55 -19.66378 132.75093 32133 ft 461 kts 337°
2026-05-07 18:55 -19.60188 132.73453 32148 ft 461 kts 337°
2026-05-07 18:56 -19.53948 132.71799 32153 ft 462 kts 337°
2026-05-07 18:56 -19.47701 132.70145 32148 ft 462 kts 337°
2026-05-07 18:57 -19.41456 132.68494 32115 ft 462 kts 336°
2026-05-07 18:57 -19.35208 132.66842 32138 ft 463 kts 336°
2026-05-07 18:58 -19.28991 132.65200 32143 ft 463 kts 336°
2026-05-07 18:58 -19.22731 132.63548 32135 ft 464 kts 336°
2026-05-07 18:59 -19.16453 132.61893 32135 ft 464 kts 336°
2026-05-07 18:59 -19.10183 132.60241 32132 ft 464 kts 336°
2026-05-07 19:00 -19.03899 132.58586 32134 ft 465 kts 336°
2026-05-07 19:00 -18.97641 132.56939 32130 ft 466 kts 336°
2026-05-07 19:01 -18.91345 132.55285 32119 ft 466 kts 336°
2026-05-07 19:01 -18.85038 132.53628 32126 ft 467 kts 336°
2026-05-07 19:02 -18.78721 132.51970 32127 ft 468 kts 336°
2026-05-07 19:02 -18.72393 132.50311 32124 ft 468 kts 336°
2026-05-07 19:03 -18.66060 132.48654 32118 ft 469 kts 336°
2026-05-07 19:03 -18.59766 132.47007 32120 ft 468 kts 336°
2026-05-07 19:04 -18.53449 132.45355 32114 ft 468 kts 336°
2026-05-07 19:04 -18.47126 132.43703 32095 ft 467 kts 336°
2026-05-07 19:05 -18.40805 132.42051 32113 ft 468 kts 336°
2026-05-07 19:05 -18.34473 132.40398 32126 ft 468 kts 336°
2026-05-07 19:06 -18.28139 132.38746 32106 ft 470 kts 336°
2026-05-07 19:06 -18.18648 132.36274 32096 ft 471 kts 336°
2026-05-07 19:07 -18.12283 132.34617 32109 ft 472 kts 337°
2026-05-07 19:07 -18.05906 132.32959 32101 ft 473 kts 337°
2026-05-07 19:08 -17.99512 132.31297 32086 ft 473 kts 337°
2026-05-07 19:08 -17.93112 132.29636 32096 ft 473 kts 337°
2026-05-07 19:09 -17.86706 132.27973 32101 ft 474 kts 337°
2026-05-07 19:09 -17.80306 132.26314 32091 ft 474 kts 337°
2026-05-07 19:10 -17.73891 132.24652 32090 ft 474 kts 337°
2026-05-07 19:10 -17.67518 132.23002 32090 ft 474 kts 337°
2026-05-07 19:11 -17.61105 132.21343 32086 ft 474 kts 337°
2026-05-07 19:11 -17.54691 132.19684 32104 ft 474 kts 337°
2026-05-07 19:12 -17.49361 132.18307 32084 ft 474 kts 337°
2026-05-07 19:12 -17.41896 132.16380 32088 ft 476 kts 337°
2026-05-07 19:13 -17.36497 132.14987 32085 ft 476 kts 338°
2026-05-07 19:13 -17.30093 132.13335 32084 ft 477 kts 338°
2026-05-07 19:14 -17.23627 132.11670 32071 ft 478 kts 338°
2026-05-07 19:14 -17.17194 132.10014 32079 ft 478 kts 338°
2026-05-07 19:15 -17.10734 132.08352 32080 ft 478 kts 338°
2026-05-07 19:15 -17.04261 132.06687 32056 ft 479 kts 338°
2026-05-07 19:16 -16.97796 132.04989 32074 ft 478 kts 337°
2026-05-07 19:16 -16.91379 132.03169 32070 ft 478 kts 336°
2026-05-07 19:17 -16.84966 132.01329 32071 ft 478 kts 336°
2026-05-07 19:17 -16.78540 131.99502 32057 ft 478 kts 336°
2026-05-07 19:18 -16.72111 131.97687 32066 ft 479 kts 337°
2026-05-07 19:18 -16.65711 131.95885 32063 ft 480 kts 337°
2026-05-07 19:19 -16.59263 131.94070 32063 ft 480 kts 337°
2026-05-07 19:19 -16.52793 131.92249 32049 ft 481 kts 337°
2026-05-07 19:20 -16.46333 131.90433 32057 ft 481 kts 337°
2026-05-07 19:20 -16.39864 131.88616 32064 ft 481 kts 337°
2026-05-07 19:21 -16.33393 131.86798 32056 ft 482 kts 337°
2026-05-07 19:21 -16.26954 131.84991 32056 ft 482 kts 337°
2026-05-07 19:22 -16.20477 131.83175 32054 ft 482 kts 337°
2026-05-07 19:22 -16.13995 131.81359 32049 ft 482 kts 337°
2026-05-07 19:23 -16.07521 131.79546 32030 ft 481 kts 337°
2026-05-07 19:23 -16.01079 131.77743 32046 ft 481 kts 337°
2026-05-07 19:24 -15.94606 131.75932 32046 ft 481 kts 337°
2026-05-07 19:24 -15.88132 131.74122 32047 ft 482 kts 337°
2026-05-07 19:25 -15.81643 131.72310 32031 ft 482 kts 337°
2026-05-07 19:25 -15.75204 131.70512 32043 ft 482 kts 337°
2026-05-07 19:26 -15.68722 131.68705 32047 ft 482 kts 337°
2026-05-07 19:26 -15.62232 131.66896 32044 ft 483 kts 337°
2026-05-07 19:27 -15.55742 131.65087 32025 ft 483 kts 337°
2026-05-07 19:27 -15.49243 131.63278 32036 ft 483 kts 337°
2026-05-07 19:28 -15.42776 131.61479 32031 ft 484 kts 337°
2026-05-07 19:28 -15.36276 131.59672 32033 ft 484 kts 337°
2026-05-07 19:29 -15.29769 131.57864 32041 ft 484 kts 338°
2026-05-07 19:29 -15.23254 131.56055 32038 ft 485 kts 338°
2026-05-07 19:30 -15.16734 131.54245 32019 ft 485 kts 338°
2026-05-07 19:30 -15.10204 131.52435 32022 ft 485 kts 338°
2026-05-07 19:31 -15.03683 131.50628 32020 ft 485 kts 338°
2026-05-07 19:31 -14.97199 131.48832 32017 ft 485 kts 338°
2026-05-07 19:32 -14.90667 131.47023 32013 ft 486 kts 338°
2026-05-07 19:32 -14.84128 131.45215 32022 ft 486 kts 338°
2026-05-07 19:33 -14.77589 131.43407 32014 ft 486 kts 338°
2026-05-07 19:33 -14.71084 131.41610 32013 ft 486 kts 338°
2026-05-07 19:34 -14.64541 131.39803 32014 ft 486 kts 338°
2026-05-07 19:34 -14.57992 131.37995 31986 ft 487 kts 338°
2026-05-07 19:35 -14.51447 131.36185 32000 ft 487 kts 338°
2026-05-07 19:35 -14.44944 131.34337 32012 ft 487 kts 338°
2026-05-07 19:36 -14.38415 131.32465 32004 ft 487 kts 338°
2026-05-07 19:36 -14.31918 131.30607 31987 ft 487 kts 338°
2026-05-07 19:37 -14.25377 131.28744 31998 ft 487 kts 338°
2026-05-07 19:37 -14.18831 131.26881 32001 ft 488 kts 338°
2026-05-07 19:38 -14.12277 131.25018 31995 ft 488 kts 338°
2026-05-07 19:38 -14.05731 131.23157 31978 ft 488 kts 338°
2026-05-07 19:39 -13.99216 131.21307 31989 ft 488 kts 339°
2026-05-07 19:39 -13.92676 131.19450 31996 ft 488 kts 339°
2026-05-07 19:40 -13.86133 131.17594 31994 ft 488 kts 339°
2026-05-07 19:40 -13.79578 131.15735 31992 ft 488 kts 339°
2026-05-07 19:41 -13.73032 131.13880 31992 ft 488 kts 339°
2026-05-07 19:41 -13.66484 131.12025 31993 ft 488 kts 339°
2026-05-07 19:42 -13.59929 131.10169 31985 ft 488 kts 339°
2026-05-07 19:42 -13.53377 131.08316 31979 ft 488 kts 339°
2026-05-07 19:43 -13.46858 131.06473 31993 ft 489 kts 339°
2026-05-07 19:43 -13.40293 131.04617 31992 ft 489 kts 339°
2026-05-07 19:44 -13.33736 131.02765 31987 ft 489 kts 339°
2026-05-07 19:44 -13.27162 131.00910 31971 ft 489 kts 339°
2026-05-07 19:45 -13.20586 130.99054 31975 ft 490 kts 339°
2026-05-07 19:45 -13.14053 130.97212 31973 ft 490 kts 339°
2026-05-07 19:46 -13.07471 130.95358 31973 ft 490 kts 339°
2026-05-07 19:46 -13.00877 130.93500 31956 ft 491 kts 339°
2026-05-07 19:47 -12.94278 130.91643 31969 ft 491 kts 339°
2026-05-07 19:47 -12.87718 130.89798 31966 ft 491 kts 339°
2026-05-07 19:48 -12.81114 130.87941 31964 ft 492 kts 339°
2026-05-07 19:48 -12.74511 130.86085 31948 ft 492 kts 340°
2026-05-07 19:49 -12.67918 130.84234 31958 ft 491 kts 340°
2026-05-07 19:49 -12.61321 130.82381 31964 ft 492 kts 340°
2026-05-07 19:50 -12.54761 130.80541 31965 ft 492 kts 340°
2026-05-07 19:50 -12.48153 130.78687 31958 ft 492 kts 340°
2026-05-07 19:51 -12.41548 130.76835 31963 ft 492 kts 340°
2026-05-07 19:51 -12.34932 130.74982 31965 ft 492 kts 340°
2026-05-07 19:52 -12.28328 130.73094 31965 ft 492 kts 339°
2026-05-07 19:52 -12.21770 130.71189 31947 ft 492 kts 340°
2026-05-07 19:53 -12.15176 130.69277 31956 ft 493 kts 340°
2026-05-07 19:53 -12.08572 130.67368 31946 ft 493 kts 340°
2026-05-07 19:54 -12.01959 130.65461 31946 ft 493 kts 340°
2026-05-07 19:54 -11.95393 130.63567 31941 ft 493 kts 340°
2026-05-07 19:55 -11.88781 130.61662 31941 ft 493 kts 340°
2026-05-07 19:55 -11.82160 130.59755 31940 ft 494 kts 340°
2026-05-07 19:56 -11.75545 130.57850 31940 ft 494 kts 340°
2026-05-07 19:56 -11.68931 130.55947 31935 ft 493 kts 341°
2026-05-07 19:57 -11.62360 130.54057 31938 ft 493 kts 341°
2026-05-07 19:57 -11.55759 130.52159 31933 ft 493 kts 341°
2026-05-07 19:58 -11.49151 130.50261 31937 ft 492 kts 341°
2026-05-07 19:58 -11.42551 130.48365 31921 ft 492 kts 341°
2026-05-07 19:59 -11.35980 130.46479 31934 ft 492 kts 341°
2026-05-07 19:59 -11.29378 130.44584 31932 ft 492 kts 341°
2026-05-07 20:00 -11.22777 130.42691 31934 ft 493 kts 341°
2026-05-07 20:00 -11.17286 130.41117 31933 ft 493 kts 341°
2026-05-07 20:01 -11.09609 130.38917 31928 ft 493 kts 341°
2026-05-07 20:01 -11.04112 130.37343 31931 ft 493 kts 341°
2026-05-07 20:02 -10.97498 130.35449 31929 ft 493 kts 341°
2026-05-07 20:02 -10.90896 130.33560 31918 ft 493 kts 341°
2026-05-07 20:03 -10.84293 130.31672 31924 ft 493 kts 341°
2026-05-07 20:03 -10.77686 130.29783 31918 ft 493 kts 341°
2026-05-07 20:04 -10.71076 130.27894 31913 ft 493 kts 341°
2026-05-07 20:04 -10.64467 130.26006 31911 ft 493 kts 341°
2026-05-07 20:05 -10.57903 130.24132 31911 ft 493 kts 341°
2026-05-07 20:05 -10.51281 130.22242 31914 ft 493 kts 341°
2026-05-07 20:06 -10.44666 130.20356 31913 ft 493 kts 341°
2026-05-07 20:06 -10.38053 130.18470 31904 ft 493 kts 341°
2026-05-07 20:07 -10.31483 130.16598 31904 ft 493 kts 341°
2026-05-07 20:07 -10.24880 130.14717 31904 ft 492 kts 341°
2026-05-07 20:08 -10.18281 130.12838 31902 ft 492 kts 341°
2026-05-07 20:08 -10.11677 130.10958 31895 ft 492 kts 341°
2026-05-07 20:09 -10.05128 130.09095 31903 ft 491 kts 341°
2026-05-07 20:10 -9.95245 130.06285 31899 ft 491 kts 341°
2026-05-07 20:10 -9.88657 130.04413 31902 ft 491 kts 341°
2026-05-07 20:11 -9.82070 130.02541 31898 ft 491 kts 341°
2026-05-07 20:11 -9.75525 130.00683 31901 ft 491 kts 341°
2026-05-07 20:12 -9.68933 129.98811 31895 ft 492 kts 341°
2026-05-07 20:12 -9.62343 129.96942 31896 ft 492 kts 341°
2026-05-07 20:13 -9.55742 129.95069 31890 ft 492 kts 342°
2026-05-07 20:13 -9.49137 129.93197 31895 ft 492 kts 342°
2026-05-07 20:14 -9.42536 129.91326 31894 ft 493 kts 342°
2026-05-07 20:14 -9.35929 129.89455 31892 ft 493 kts 342°
2026-05-07 20:15 -9.29327 129.87585 31888 ft 493 kts 342°
2026-05-07 20:15 -9.22759 129.85726 31894 ft 493 kts 342°
2026-05-07 20:16 -9.16152 129.83857 31889 ft 493 kts 342°
2026-05-07 20:16 -9.09530 129.81984 31889 ft 493 kts 342°
2026-05-07 20:17 -9.02926 129.80116 31890 ft 493 kts 342°
2026-05-07 20:17 -8.96317 129.78249 31887 ft 493 kts 342°
2026-05-07 20:18 -8.89753 129.76394 31887 ft 493 kts 342°
2026-05-07 20:18 -8.83140 129.74526 31889 ft 493 kts 342°
2026-05-07 20:19 -8.76520 129.72657 31889 ft 493 kts 341°
2026-05-07 20:19 -8.69896 129.70788 31885 ft 493 kts 342°
2026-05-07 20:20 -8.63316 129.68931 31892 ft 493 kts 342°
2026-05-07 20:20 -8.56706 129.67066 31886 ft 493 kts 342°
2026-05-07 20:21 -8.50108 129.65158 31883 ft 493 kts 341°
2026-05-07 20:21 -8.43535 129.63152 31886 ft 492 kts 340°
2026-05-07 20:22 -8.37017 129.61154 31884 ft 492 kts 340°
2026-05-07 20:22 -8.30441 129.59153 31882 ft 492 kts 340°
2026-05-07 20:23 -8.23865 129.57162 31886 ft 492 kts 340°
2026-05-07 20:23 -8.17299 129.55176 31879 ft 493 kts 341°
2026-05-07 20:24 -8.10768 129.53201 31883 ft 493 kts 340°
2026-05-07 20:24 -8.04196 129.51214 31879 ft 493 kts 341°
2026-05-07 20:25 -7.97621 129.49226 31880 ft 493 kts 341°
2026-05-07 20:25 -7.91045 129.47239 31881 ft 493 kts 341°
2026-05-07 20:26 -7.84470 129.45252 31874 ft 493 kts 341°
2026-05-07 20:26 -7.77885 129.43264 31880 ft 494 kts 341°
2026-05-07 20:27 -7.71344 129.41289 31873 ft 494 kts 341°
2026-05-07 20:27 -7.64736 129.39295 31878 ft 495 kts 341°
2026-05-07 20:28 -7.58140 129.37305 31880 ft 495 kts 341°
2026-05-07 20:28 -7.51528 129.35311 31875 ft 495 kts 341°
2026-05-07 20:29 -7.44970 129.33334 31874 ft 495 kts 341°
2026-05-07 20:29 -7.38373 129.31345 31874 ft 494 kts 341°
2026-05-07 20:30 -7.31782 129.29359 31869 ft 494 kts 341°
2026-05-07 20:30 -7.25190 129.27374 31873 ft 494 kts 341°
2026-05-07 20:31 -7.18603 129.25390 31875 ft 494 kts 341°
2026-05-07 20:31 -7.12013 129.23406 31871 ft 494 kts 341°
2026-05-07 20:32 -7.05460 129.21434 31871 ft 494 kts 341°
2026-05-07 20:32 -6.98870 129.19451 31870 ft 495 kts 341°
2026-05-07 20:33 -6.92268 129.17465 31888 ft 497 kts 341°
2026-05-07 20:33 -6.88945 129.16466 32067 ft 498 kts 341°
2026-05-07 20:33 -6.85627 129.15468 32362 ft 496 kts 341°
2026-05-07 20:33 -6.82319 129.14474 32674 ft 495 kts 341°
2026-05-07 20:34 -6.79030 129.13486 32980 ft 493 kts 341°
2026-05-07 20:34 -6.75735 129.12496 33222 ft 493 kts 341°
2026-05-07 20:34 -6.72448 129.11509 33469 ft 493 kts 340°
2026-05-07 20:34 -6.69209 129.10535 33728 ft 492 kts 341°
2026-05-07 20:35 -6.65918 129.09546 33794 ft 495 kts 340°
2026-05-07 20:35 -6.59320 129.07564 33851 ft 493 kts 341°
2026-05-07 20:36 -6.52760 129.05595 33864 ft 490 kts 341°
2026-05-07 20:36 -6.46229 129.03635 33866 ft 489 kts 341°
2026-05-07 20:37 -6.39711 129.01679 33868 ft 488 kts 341°
2026-05-07 20:37 -6.33197 128.99724 33864 ft 489 kts 341°
2026-05-07 20:38 -6.26667 128.97765 33861 ft 490 kts 341°
2026-05-07 20:38 -6.20113 128.95800 33860 ft 491 kts 341°
2026-05-07 20:39 -6.13602 128.93848 33862 ft 491 kts 341°
2026-05-07 20:39 -6.07058 128.91887 33858 ft 491 kts 341°
2026-05-07 20:40 -6.00513 128.89926 33858 ft 490 kts 341°
2026-05-07 20:40 -5.93967 128.87965 33856 ft 490 kts 341°
2026-05-07 20:41 -5.87434 128.86008 33861 ft 490 kts 341°
2026-05-07 20:41 -5.80902 128.84053 33862 ft 490 kts 341°
2026-05-07 20:42 -5.74363 128.82096 33861 ft 490 kts 341°
2026-05-07 20:42 -5.67835 128.80142 33856 ft 490 kts 341°
2026-05-07 20:43 -5.61334 128.78197 33857 ft 490 kts 341°
2026-05-07 20:43 -5.54794 128.76241 33857 ft 490 kts 341°
2026-05-07 20:44 -5.48252 128.74284 33857 ft 490 kts 341°
2026-05-07 20:44 -5.41700 128.72325 33854 ft 490 kts 341°
2026-05-07 20:45 -5.35184 128.70377 33853 ft 491 kts 341°
2026-05-07 20:45 -5.28636 128.68420 33851 ft 491 kts 342°
2026-05-07 20:46 -5.22072 128.66459 33859 ft 492 kts 342°
2026-05-07 20:46 -5.15492 128.64494 33856 ft 493 kts 341°
2026-05-07 20:47 -5.08897 128.62524 33854 ft 494 kts 341°
2026-05-07 20:47 -5.03413 128.60886 33858 ft 495 kts 342°
2026-05-07 20:48 -4.95740 128.58596 33855 ft 495 kts 342°
2026-05-07 20:48 -4.89130 128.56623 33855 ft 495 kts 342°
2026-05-07 20:49 -4.83630 128.54982 33850 ft 495 kts 342°
2026-05-07 20:49 -4.77017 128.53009 33855 ft 494 kts 342°
2026-05-07 20:50 -4.70418 128.51040 33855 ft 494 kts 342°
2026-05-07 20:50 -4.63866 128.49086 33855 ft 494 kts 342°
2026-05-07 20:51 -4.57263 128.47118 33851 ft 494 kts 342°
2026-05-07 20:51 -4.50661 128.45149 33856 ft 494 kts 342°
2026-05-07 20:52 -4.44069 128.43184 33856 ft 494 kts 343°
2026-05-07 20:52 -4.37474 128.41219 33855 ft 494 kts 342°
2026-05-07 20:53 -4.30879 128.39254 33854 ft 494 kts 343°
2026-05-07 20:53 -4.24317 128.37299 33855 ft 494 kts 343°
2026-05-07 20:54 -4.17716 128.35333 33856 ft 494 kts 343°
2026-05-07 20:54 -4.11119 128.33368 33854 ft 494 kts 342°
2026-05-07 20:55 -4.04525 128.31405 33860 ft 494 kts 343°
2026-05-07 20:55 -3.97932 128.29442 33858 ft 494 kts 343°
2026-05-07 20:56 -3.91364 128.27487 33862 ft 494 kts 343°
2026-05-07 20:56 -3.84763 128.25523 33851 ft 494 kts 343°
2026-05-07 20:57 -3.78168 128.23560 33844 ft 494 kts 343°
2026-05-07 20:57 -3.71566 128.21595 33838 ft 494 kts 343°
2026-05-07 20:58 -3.65023 128.19647 33836 ft 494 kts 342°
2026-05-07 20:58 -3.58665 128.17041 33840 ft 493 kts 331°
2026-05-07 20:59 -3.52750 128.13564 33855 ft 493 kts 329°
2026-05-07 20:59 -3.46856 128.10051 33875 ft 493 kts 329°
2026-05-07 21:00 -3.40968 128.06577 33874 ft 494 kts 329°
2026-05-07 21:00 -3.35024 128.03092 33870 ft 494 kts 329°
2026-05-07 21:01 -3.29080 127.99615 33862 ft 494 kts 329°
2026-05-07 21:01 -3.23132 127.96134 33856 ft 495 kts 329°
2026-05-07 21:02 -3.17214 127.92671 33859 ft 496 kts 329°
2026-05-07 21:02 -3.11253 127.89182 33852 ft 496 kts 329°
2026-05-07 21:03 -3.05289 127.85692 33852 ft 497 kts 329°
2026-05-07 21:03 -2.99316 127.82196 33846 ft 497 kts 329°
2026-05-07 21:04 -2.93338 127.78699 33846 ft 497 kts 329°
2026-05-07 21:04 -2.87362 127.75203 33847 ft 497 kts 329°
2026-05-07 21:05 -2.81435 127.71736 33846 ft 496 kts 329°
2026-05-07 21:05 -2.75470 127.68247 33846 ft 496 kts 329°
2026-05-07 21:06 -2.69504 127.64759 33847 ft 496 kts 329°
2026-05-07 21:06 -2.63544 127.61274 33847 ft 496 kts 329°
2026-05-07 21:07 -2.57572 127.57782 33846 ft 497 kts 329°
2026-05-07 21:07 -2.51604 127.54294 33848 ft 497 kts 329°
2026-05-07 21:08 -2.45633 127.50803 33846 ft 497 kts 329°
2026-05-07 21:08 -2.39656 127.47310 33847 ft 497 kts 329°
2026-05-07 21:09 -2.33721 127.43841 33846 ft 497 kts 329°
2026-05-07 21:09 -2.27741 127.40347 33848 ft 497 kts 329°
2026-05-07 21:10 -2.21763 127.36854 33846 ft 497 kts 329°
2026-05-07 21:10 -2.15780 127.33358 33848 ft 497 kts 329°
2026-05-07 21:11 -2.09800 127.29865 33844 ft 498 kts 329°
2026-05-07 21:11 -2.00862 127.24644 33849 ft 498 kts 329°
2026-05-07 21:12 -1.94878 127.21149 33843 ft 498 kts 329°
2026-05-07 21:12 -1.88880 127.17646 33849 ft 499 kts 329°
2026-05-07 21:13 -1.82884 127.14145 33846 ft 499 kts 329°
2026-05-07 21:13 -1.76884 127.10641 33848 ft 499 kts 329°
2026-05-07 21:14 -1.70882 127.07137 33845 ft 499 kts 329°
2026-05-07 21:14 -1.64916 127.03654 33848 ft 499 kts 329°
2026-05-07 21:15 -1.58910 127.00148 33845 ft 499 kts 329°
2026-05-07 21:15 -1.52906 126.96643 33847 ft 499 kts 329°
2026-05-07 21:16 -1.46900 126.93137 33847 ft 499 kts 329°
2026-05-07 21:16 -1.40934 126.89655 33845 ft 500 kts 329°
2026-05-07 21:17 -1.34927 126.86149 33849 ft 500 kts 329°
2026-05-07 21:17 -1.28918 126.82642 33846 ft 500 kts 329°
2026-05-07 21:18 -1.22904 126.79133 33850 ft 500 kts 329°
2026-05-07 21:18 -1.16898 126.75628 33841 ft 500 kts 329°
2026-05-07 21:19 -1.10895 126.72126 33845 ft 500 kts 329°
2026-05-07 21:19 -1.04919 126.68638 33842 ft 500 kts 329°
2026-05-07 21:20 -0.98909 126.65132 33845 ft 499 kts 329°
2026-05-07 21:20 -0.92905 126.61629 33843 ft 499 kts 329°
2026-05-07 21:21 -0.86898 126.58124 33844 ft 499 kts 329°
2026-05-07 21:21 -0.80900 126.54625 33849 ft 499 kts 329°
2026-05-07 21:22 -0.74925 126.51139 33844 ft 499 kts 329°
2026-05-07 21:22 -0.68922 126.47638 33847 ft 499 kts 329°
2026-05-07 21:23 -0.62922 126.44138 33846 ft 500 kts 329°
2026-05-07 21:23 -0.56911 126.40631 33853 ft 500 kts 329°
2026-05-07 21:24 -0.50904 126.37128 33845 ft 500 kts 329°
2026-05-07 21:24 -0.44890 126.33619 33846 ft 499 kts 329°
2026-05-07 21:25 -0.38926 126.30141 33848 ft 499 kts 329°
2026-05-07 21:25 -0.32927 126.26642 33845 ft 499 kts 329°
2026-05-07 21:26 -0.26923 126.23140 33846 ft 499 kts 329°
2026-05-07 21:26 -0.20925 126.19641 33846 ft 499 kts 329°
2026-05-07 21:27 -0.14928 126.16144 33849 ft 499 kts 329°
2026-05-07 21:27 -0.08970 126.12669 33845 ft 499 kts 329°
2026-05-07 21:28 -0.02970 126.09169 33846 ft 499 kts 329°
2026-05-07 21:28 0.03036 126.05666 33848 ft 499 kts 330°
2026-05-07 21:29 0.09039 126.02165 33839 ft 499 kts 330°
2026-05-07 21:29 0.15048 125.98660 33842 ft 499 kts 330°
2026-05-07 21:30 0.21045 125.95163 33842 ft 499 kts 330°
2026-05-07 21:30 0.27003 125.91688 33846 ft 499 kts 330°
2026-05-07 21:31 0.33003 125.88188 33841 ft 499 kts 330°
2026-05-07 21:31 0.39003 125.84689 33842 ft 499 kts 330°
2026-05-07 21:32 0.44994 125.81194 33846 ft 498 kts 329°
2026-05-07 21:32 0.50991 125.77696 33842 ft 498 kts 330°
2026-05-07 21:33 0.56955 125.74217 33845 ft 498 kts 330°
2026-05-07 21:33 0.62942 125.70725 33843 ft 498 kts 330°
2026-05-07 21:34 0.68940 125.67226 33843 ft 499 kts 330°
2026-05-07 21:34 0.74941 125.63726 33845 ft 499 kts 330°
2026-05-07 21:35 0.79926 125.60817 33845 ft 499 kts 330°
2026-05-07 21:35 0.85918 125.57322 33848 ft 499 kts 330°
2026-05-07 21:36 0.91887 125.53839 33841 ft 499 kts 330°
2026-05-07 21:36 0.97881 125.50342 33844 ft 498 kts 330°
2026-05-07 21:37 1.03877 125.46844 33845 ft 498 kts 330°
2026-05-07 21:37 1.09860 125.43353 33846 ft 497 kts 330°
2026-05-07 21:38 1.15836 125.39866 33863 ft 497 kts 330°
2026-05-07 21:38 1.21816 125.36377 33863 ft 497 kts 330°
2026-05-07 21:39 1.27760 125.32908 33886 ft 497 kts 329°
2026-05-07 21:39 1.33737 125.29420 33881 ft 496 kts 329°
2026-05-07 21:40 1.39668 125.25958 33885 ft 496 kts 329°
2026-05-07 21:40 1.45639 125.22473 33896 ft 496 kts 329°
2026-05-07 21:41 1.51607 125.18990 33903 ft 497 kts 329°
2026-05-07 21:41 1.57584 125.15500 33902 ft 497 kts 329°
2026-05-07 21:42 1.63564 125.12009 33902 ft 497 kts 329°
2026-05-07 21:42 1.69514 125.08535 33900 ft 497 kts 329°
2026-05-07 21:43 1.75490 125.05046 33885 ft 497 kts 329°
2026-05-07 21:43 1.81476 125.01551 33878 ft 497 kts 329°
2026-05-07 21:44 1.87417 124.98081 33868 ft 497 kts 329°
2026-05-07 21:44 1.93391 124.94592 33841 ft 497 kts 329°
2026-05-07 21:45 1.99354 124.91108 33840 ft 496 kts 329°
2026-05-07 21:45 2.05311 124.87627 33835 ft 495 kts 329°
2026-05-07 21:46 2.11248 124.84116 33834 ft 495 kts 329°
2026-05-07 21:46 2.17171 124.80589 33836 ft 495 kts 329°
2026-05-07 21:47 2.23059 124.77086 33834 ft 495 kts 328°
2026-05-07 21:47 2.28989 124.73562 33837 ft 495 kts 329°
2026-05-07 21:48 2.34917 124.70041 33835 ft 496 kts 329°
2026-05-07 21:48 2.40862 124.66510 33836 ft 497 kts 328°
2026-05-07 21:49 2.46806 124.62978 33836 ft 497 kts 329°
2026-05-07 21:49 2.52757 124.59442 33835 ft 497 kts 329°
2026-05-07 21:50 2.58679 124.55923 33839 ft 498 kts 329°
2026-05-07 21:50 2.64638 124.52381 33839 ft 498 kts 329°
2026-05-07 21:51 2.70597 124.48839 33835 ft 498 kts 328°
2026-05-07 21:51 2.76555 124.45297 33839 ft 498 kts 329°
2026-05-07 21:52 2.82510 124.41756 33834 ft 497 kts 329°
2026-05-07 21:52 2.88455 124.38222 33835 ft 497 kts 328°
2026-05-07 21:53 2.94358 124.34711 33836 ft 496 kts 328°
2026-05-07 21:53 3.00292 124.31182 33832 ft 496 kts 328°
2026-05-07 21:54 3.06222 124.27655 33832 ft 495 kts 328°
2026-05-07 21:54 3.12147 124.24130 33833 ft 495 kts 328°
2026-05-07 21:55 3.18074 124.20603 33834 ft 495 kts 328°
2026-05-07 21:55 3.23968 124.17096 33833 ft 495 kts 328°
2026-05-07 21:56 3.29892 124.13570 33834 ft 495 kts 328°
2026-05-07 21:56 3.35815 124.10044 33833 ft 495 kts 329°
2026-05-07 21:57 3.41737 124.06519 33836 ft 495 kts 328°
2026-05-07 21:57 3.47657 124.02994 33834 ft 495 kts 328°
2026-05-07 21:58 3.53587 123.99463 33836 ft 495 kts 328°
2026-05-07 21:58 3.59468 123.95960 33836 ft 495 kts 328°
2026-05-07 21:59 3.65391 123.92432 33836 ft 495 kts 329°
2026-05-07 21:59 3.71307 123.88907 33834 ft 494 kts 329°
2026-05-07 22:00 3.77216 123.85386 33836 ft 494 kts 328°
2026-05-07 22:00 3.83119 123.81867 33836 ft 494 kts 328°
2026-05-07 22:01 3.88993 123.78366 33829 ft 493 kts 328°
2026-05-07 22:01 3.94893 123.74847 33830 ft 493 kts 328°
2026-05-07 22:02 4.00785 123.71337 33829 ft 493 kts 329°
2026-05-07 22:02 4.06754 123.67924 33829 ft 493 kts 330°
2026-05-07 22:03 4.12739 123.64573 33831 ft 493 kts 330°
2026-05-07 22:03 4.18712 123.61216 33829 ft 492 kts 330°
2026-05-07 22:04 4.24686 123.57841 33830 ft 492 kts 330°
2026-05-07 22:04 4.30620 123.54480 33830 ft 492 kts 330°
2026-05-07 22:05 4.36586 123.51101 33830 ft 492 kts 330°
2026-05-07 22:05 4.42560 123.47717 33830 ft 492 kts 330°
2026-05-07 22:06 4.48526 123.44338 33831 ft 492 kts 329°
2026-05-07 22:06 4.54496 123.40956 33830 ft 493 kts 329°
2026-05-07 22:07 4.60437 123.37590 33833 ft 493 kts 329°
2026-05-07 22:07 4.66417 123.34200 33833 ft 493 kts 329°
2026-05-07 22:08 4.72382 123.30819 33832 ft 493 kts 329°
2026-05-07 22:08 4.78353 123.27434 33840 ft 493 kts 329°
2026-05-07 22:09 4.84325 123.24047 33835 ft 492 kts 329°
2026-05-07 22:09 4.90259 123.20682 33832 ft 492 kts 329°
2026-05-07 22:10 4.96217 123.17302 33833 ft 492 kts 329°
2026-05-07 22:10 5.02177 123.13920 33832 ft 491 kts 329°
2026-05-07 22:11 5.08126 123.10543 33833 ft 491 kts 329°
2026-05-07 22:11 5.14082 123.07162 33835 ft 491 kts 329°
2026-05-07 22:12 5.20023 123.03789 33832 ft 490 kts 329°
2026-05-07 22:12 5.25959 123.00418 33832 ft 490 kts 329°
2026-05-07 22:13 5.31865 122.97063 33833 ft 490 kts 329°
2026-05-07 22:13 5.37795 122.93694 33833 ft 490 kts 329°
2026-05-07 22:14 5.43724 122.90324 33838 ft 490 kts 329°
2026-05-07 22:14 5.49661 122.86950 33836 ft 490 kts 329°
2026-05-07 22:15 5.55558 122.83597 33835 ft 490 kts 329°
2026-05-07 22:15 5.61490 122.80223 33835 ft 490 kts 329°
2026-05-07 22:16 5.67418 122.76851 33835 ft 490 kts 329°
2026-05-07 22:16 5.73352 122.73474 33836 ft 490 kts 329°
2026-05-07 22:17 5.79281 122.70100 33835 ft 490 kts 329°
2026-05-07 22:17 5.85213 122.66724 33836 ft 490 kts 329°
2026-05-07 22:18 5.94111 122.61657 33832 ft 490 kts 329°
2026-05-07 22:19 6.00016 122.58293 33836 ft 491 kts 329°
2026-05-07 22:19 6.05956 122.54909 33836 ft 491 kts 329°
2026-05-07 22:20 6.11899 122.51522 33835 ft 491 kts 329°
2026-05-07 22:20 6.17852 122.48129 33836 ft 491 kts 329°
2026-05-07 22:21 6.23800 122.44737 33836 ft 492 kts 329°
2026-05-07 22:21 6.29756 122.41340 33835 ft 492 kts 329°
2026-05-07 22:22 6.35713 122.37941 33835 ft 492 kts 329°
2026-05-07 22:22 6.41630 122.34565 33836 ft 492 kts 329°
2026-05-07 22:23 6.47584 122.31165 33832 ft 492 kts 329°
2026-05-07 22:23 6.52532 122.28339 33839 ft 492 kts 329°
2026-05-07 22:24 6.59482 122.24371 33837 ft 493 kts 329°
2026-05-07 22:24 6.64487 122.21514 33842 ft 494 kts 329°
2026-05-07 22:25 6.70458 122.18104 33846 ft 494 kts 329°
2026-05-07 22:25 6.76403 122.14707 33856 ft 494 kts 329°
2026-05-07 22:26 6.82391 122.11283 33854 ft 494 kts 329°
2026-05-07 22:26 6.88366 122.07866 33858 ft 494 kts 329°
2026-05-07 22:27 6.94395 122.04516 33855 ft 494 kts 332°
2026-05-07 22:27 7.00552 122.01497 33857 ft 495 kts 333°
2026-05-07 22:28 7.06770 121.98496 33845 ft 495 kts 333°
2026-05-07 22:28 7.12976 121.95465 33836 ft 496 kts 333°
2026-05-07 22:29 7.19183 121.92415 33838 ft 497 kts 333°
2026-05-07 22:29 7.25405 121.89358 33838 ft 497 kts 333°
2026-05-07 22:30 7.31603 121.86314 33839 ft 498 kts 333°
2026-05-07 22:30 7.37833 121.83254 33833 ft 498 kts 333°
2026-05-07 22:31 7.44075 121.80185 33832 ft 498 kts 333°
2026-05-07 22:31 7.50313 121.77116 33832 ft 498 kts 333°
2026-05-07 22:32 7.56497 121.74073 33826 ft 498 kts 333°
2026-05-07 22:32 7.62715 121.71012 33827 ft 497 kts 333°
2026-05-07 22:33 7.68924 121.67954 33830 ft 496 kts 333°
2026-05-07 22:33 7.75139 121.64893 33830 ft 496 kts 333°
2026-05-07 22:34 7.81341 121.61837 33838 ft 495 kts 333°
2026-05-07 22:34 7.87531 121.58786 33834 ft 495 kts 333°
2026-05-07 22:35 7.93712 121.55738 33830 ft 494 kts 333°
2026-05-07 22:35 7.99855 121.52708 33833 ft 494 kts 333°
2026-05-07 22:36 8.06040 121.49657 33838 ft 493 kts 333°
2026-05-07 22:36 8.12197 121.46618 33836 ft 492 kts 333°
2026-05-07 22:37 8.18344 121.43582 33831 ft 492 kts 333°
2026-05-07 22:37 8.24447 121.40568 33838 ft 491 kts 333°
2026-05-07 22:38 8.30587 121.37535 33843 ft 491 kts 332°
2026-05-07 22:38 8.36745 121.34490 33835 ft 491 kts 332°
2026-05-07 22:39 8.42881 121.31457 33830 ft 491 kts 333°
2026-05-07 22:39 8.49031 121.28414 33838 ft 492 kts 333°
2026-05-07 22:40 8.55191 121.25366 33841 ft 494 kts 333°
2026-05-07 22:40 8.61374 121.22306 33835 ft 495 kts 333°
2026-05-07 22:41 8.67574 121.19237 33840 ft 497 kts 333°
2026-05-07 22:41 8.73760 121.16173 33839 ft 497 kts 333°
2026-05-07 22:42 8.79986 121.13087 33832 ft 499 kts 333°
2026-05-07 22:42 8.86249 121.09982 33840 ft 502 kts 333°
2026-05-07 22:43 8.92510 121.06878 33841 ft 505 kts 333°
2026-05-07 22:43 8.98833 121.03740 33843 ft 507 kts 333°
2026-05-07 22:44 9.05173 121.00594 33846 ft 507 kts 333°
2026-05-07 22:44 9.11521 120.97443 33847 ft 507 kts 333°
2026-05-07 22:45 9.17862 120.94294 33843 ft 507 kts 333°
2026-05-07 22:45 9.24148 120.91170 33837 ft 505 kts 333°
2026-05-07 22:46 9.30450 120.88037 33839 ft 504 kts 333°
2026-05-07 22:46 9.36735 120.84912 33838 ft 503 kts 333°
2026-05-07 22:47 9.43020 120.81785 33843 ft 502 kts 333°
2026-05-07 22:47 9.49313 120.78653 33839 ft 503 kts 333°
2026-05-07 22:48 9.55571 120.75537 33837 ft 504 kts 332°
2026-05-07 22:48 9.61886 120.72391 33839 ft 505 kts 332°
2026-05-07 22:49 9.68208 120.69240 33849 ft 506 kts 333°
2026-05-07 22:49 9.74542 120.66081 33846 ft 507 kts 333°
2026-05-07 22:50 9.80840 120.62935 33845 ft 506 kts 332°
2026-05-07 22:50 9.87142 120.59780 33832 ft 503 kts 332°
2026-05-07 22:51 9.93413 120.56638 33840 ft 501 kts 332°
2026-05-07 22:51 9.99615 120.53531 33840 ft 499 kts 332°
2026-05-07 22:52 10.05832 120.50415 33840 ft 498 kts 332°
2026-05-07 22:52 10.12043 120.47301 33842 ft 498 kts 331°
2026-05-07 22:53 10.18262 120.44180 33844 ft 498 kts 332°
2026-05-07 22:53 10.24488 120.41055 33843 ft 500 kts 332°
2026-05-07 22:54 10.30727 120.37926 33844 ft 501 kts 332°
2026-05-07 22:54 10.36986 120.34785 33841 ft 502 kts 331°
2026-05-07 22:55 10.43219 120.31654 33845 ft 503 kts 331°
2026-05-07 22:55 10.49501 120.28497 33851 ft 503 kts 332°
2026-05-07 22:56 10.55780 120.25341 33843 ft 502 kts 332°
2026-05-07 22:56 10.62031 120.22197 33850 ft 502 kts 332°
2026-05-07 22:57 10.68278 120.19053 33851 ft 501 kts 332°
2026-05-07 22:57 10.74493 120.15924 33854 ft 500 kts 332°
2026-05-07 22:58 10.80741 120.12777 33847 ft 500 kts 331°
2026-05-07 22:58 10.86977 120.09634 33854 ft 501 kts 331°
2026-05-07 22:59 10.93232 120.06479 33852 ft 501 kts 331°
2026-05-07 22:59 10.99447 120.03344 33857 ft 502 kts 331°
2026-05-07 23:00 11.05707 120.00184 33853 ft 502 kts 331°
2026-05-07 23:00 11.11971 119.97013 33862 ft 503 kts 331°
2026-05-07 23:01 11.18247 119.93833 33862 ft 504 kts 331°
2026-05-07 23:01 11.24531 119.90647 33856 ft 504 kts 331°
2026-05-07 23:02 11.30825 119.87456 33861 ft 505 kts 331°
2026-05-07 23:02 11.37084 119.84280 33859 ft 505 kts 331°
2026-05-07 23:03 11.43373 119.81088 33857 ft 505 kts 331°
2026-05-07 23:03 11.49668 119.77890 33861 ft 504 kts 332°
2026-05-07 23:04 11.55932 119.74708 33856 ft 502 kts 332°
2026-05-07 23:04 11.62139 119.71552 33856 ft 500 kts 332°
2026-05-07 23:05 11.68376 119.68379 33859 ft 499 kts 332°
2026-05-07 23:05 11.74544 119.65245 33860 ft 498 kts 332°
2026-05-07 23:06 11.80755 119.62094 33870 ft 497 kts 332°
2026-05-07 23:06 11.86949 119.58950 33864 ft 496 kts 332°
2026-05-07 23:07 11.93129 119.55809 33864 ft 495 kts 332°
2026-05-07 23:07 11.99307 119.52668 33870 ft 494 kts 332°
2026-05-07 23:08 12.05463 119.49536 33866 ft 494 kts 332°
2026-05-07 23:08 12.11580 119.46422 33869 ft 494 kts 332°
2026-05-07 23:09 12.17732 119.43288 33873 ft 494 kts 333°
2026-05-07 23:09 12.23892 119.40150 33868 ft 494 kts 333°
2026-05-07 23:10 12.30045 119.37013 33869 ft 494 kts 333°
2026-05-07 23:10 12.36200 119.33873 33869 ft 494 kts 333°
2026-05-07 23:11 12.42317 119.30752 33866 ft 494 kts 333°
2026-05-07 23:11 12.48472 119.27608 33874 ft 494 kts 333°
2026-05-07 23:12 12.54632 119.24461 33871 ft 494 kts 333°
2026-05-07 23:12 12.59743 119.21849 33876 ft 492 kts 333°
2026-05-07 23:13 12.65866 119.18717 33862 ft 491 kts 333°
2026-05-07 23:13 12.71940 119.15610 33875 ft 489 kts 333°
2026-05-07 23:14 12.78038 119.12487 33870 ft 489 kts 333°
2026-05-07 23:14 12.84133 119.09364 33878 ft 489 kts 334°
2026-05-07 23:15 12.90226 119.06242 33874 ft 489 kts 334°
2026-05-07 23:15 12.96279 119.03137 33873 ft 488 kts 334°
2026-05-07 23:16 13.02371 119.00011 33872 ft 488 kts 334°
2026-05-07 23:16 13.08458 118.96891 33864 ft 489 kts 334°
2026-05-07 23:17 13.14560 118.93761 33890 ft 490 kts 334°
2026-05-07 23:17 13.20644 118.90637 33873 ft 492 kts 334°
2026-05-07 23:18 13.26774 118.87489 33880 ft 492 kts 334°
2026-05-07 23:18 13.32895 118.84342 33872 ft 492 kts 334°
2026-05-07 23:19 13.39025 118.81189 33872 ft 492 kts 334°
2026-05-07 23:19 13.45113 118.78056 33874 ft 493 kts 334°
2026-05-07 23:20 13.51238 118.74901 33884 ft 492 kts 334°
2026-05-07 23:20 13.57366 118.71744 33881 ft 492 kts 334°
2026-05-07 23:21 13.63481 118.68594 33877 ft 491 kts 334°
2026-05-07 23:21 13.69588 118.65450 33875 ft 491 kts 334°
2026-05-07 23:22 13.75687 118.62307 33879 ft 491 kts 334°
2026-05-07 23:22 13.81803 118.59153 33885 ft 491 kts 334°
2026-05-07 23:23 13.87917 118.55996 33885 ft 491 kts 334°
2026-05-07 23:23 13.94030 118.52839 33886 ft 491 kts 334°
2026-05-07 23:24 14.00089 118.49708 33889 ft 490 kts 334°
2026-05-07 23:24 14.06190 118.46554 33884 ft 490 kts 334°
2026-05-07 23:25 14.12290 118.43398 33879 ft 490 kts 334°
2026-05-07 23:25 14.18397 118.40236 33893 ft 491 kts 334°
2026-05-07 23:26 14.24478 118.37086 33888 ft 491 kts 334°
2026-05-07 23:26 14.30597 118.33914 33891 ft 491 kts 334°
2026-05-07 23:27 14.39761 118.29159 33892 ft 491 kts 334°
2026-05-07 23:27 14.45837 118.26001 33896 ft 491 kts 334°
2026-05-07 23:28 14.51932 118.22830 33890 ft 491 kts 334°
2026-05-07 23:28 14.58035 118.19654 33891 ft 490 kts 334°
2026-05-07 23:29 14.64127 118.16482 33893 ft 490 kts 334°
2026-05-07 23:29 14.70220 118.13307 33893 ft 490 kts 334°
2026-05-07 23:30 14.76308 118.10132 33895 ft 490 kts 334°
2026-05-07 23:30 14.82401 118.06953 33899 ft 490 kts 334°
2026-05-07 23:31 14.88484 118.03778 33895 ft 489 kts 334°
2026-05-07 23:31 14.94520 118.00625 33897 ft 489 kts 334°
2026-05-07 23:32 15.00591 117.97451 33898 ft 488 kts 334°
2026-05-07 23:32 15.06651 117.94281 33902 ft 487 kts 334°
2026-05-07 23:33 15.12705 117.91113 33899 ft 487 kts 334°
2026-05-07 23:33 15.18757 117.87943 33902 ft 487 kts 334°
2026-05-07 23:34 15.24810 117.84771 33900 ft 487 kts 334°
2026-05-07 23:34 15.30823 117.81618 33904 ft 487 kts 334°
2026-05-07 23:35 15.36870 117.78444 33900 ft 487 kts 334°
2026-05-07 23:35 15.42920 117.75268 33903 ft 487 kts 334°
2026-05-07 23:36 15.48976 117.72086 33905 ft 488 kts 334°
2026-05-07 23:36 15.55029 117.68903 33906 ft 488 kts 334°
2026-05-07 23:37 15.61089 117.65715 33904 ft 488 kts 334°
2026-05-07 23:37 15.67142 117.62527 33901 ft 488 kts 334°
2026-05-07 23:38 15.73167 117.59354 33901 ft 488 kts 334°
2026-05-07 23:38 15.79228 117.56158 33909 ft 488 kts 334°
2026-05-07 23:39 15.85293 117.52958 33913 ft 488 kts 334°
2026-05-07 23:39 15.91346 117.49763 33906 ft 488 kts 334°
2026-05-07 23:40 15.97391 117.46569 33905 ft 487 kts 334°
2026-05-07 23:40 16.03440 117.43371 33908 ft 487 kts 334°
2026-05-07 23:41 16.09476 117.40178 33911 ft 487 kts 334°
2026-05-07 23:41 16.15509 117.36984 33912 ft 487 kts 334°
2026-05-07 23:42 16.21553 117.33783 33910 ft 487 kts 334°
2026-05-07 23:42 16.27549 117.30604 33911 ft 487 kts 334°
2026-05-07 23:43 16.33589 117.27399 33911 ft 487 kts 334°
2026-05-07 23:43 16.39617 117.24166 33919 ft 487 kts 332°
2026-05-07 23:44 16.45462 117.20591 33916 ft 488 kts 329°
2026-05-07 23:44 16.51255 117.16899 33912 ft 488 kts 329°
2026-05-07 23:45 16.57070 117.13248 33915 ft 487 kts 330°
2026-05-07 23:45 16.62900 117.09635 33920 ft 487 kts 330°
2026-05-07 23:46 16.68733 117.06032 33919 ft 487 kts 330°
2026-05-07 23:46 16.74563 117.02428 33914 ft 487 kts 330°
2026-05-07 23:47 16.80353 116.98842 33922 ft 486 kts 330°
2026-05-07 23:47 16.86176 116.95232 33921 ft 486 kts 330°
2026-05-07 23:48 16.92008 116.91614 33919 ft 486 kts 330°
2026-05-07 23:48 16.97830 116.87999 33921 ft 486 kts 330°
2026-05-07 23:49 17.03618 116.84403 33919 ft 487 kts 330°
2026-05-07 23:49 17.09440 116.80784 33924 ft 487 kts 330°
2026-05-07 23:50 17.15264 116.77160 33919 ft 487 kts 330°
2026-05-07 23:50 17.21093 116.73531 33928 ft 487 kts 330°
2026-05-07 23:51 17.26919 116.69901 33926 ft 487 kts 329°
2026-05-07 23:51 17.32756 116.66261 33921 ft 487 kts 329°
2026-05-07 23:52 17.38540 116.62651 33923 ft 487 kts 329°
2026-05-07 23:52 17.44394 116.58996 33923 ft 486 kts 329°
2026-05-07 23:53 17.50173 116.55383 33929 ft 486 kts 329°
2026-05-07 23:53 17.55990 116.51745 33933 ft 486 kts 329°
2026-05-07 23:54 17.61809 116.48103 33930 ft 486 kts 329°
2026-05-07 23:54 17.67613 116.44466 33932 ft 486 kts 329°
2026-05-07 23:55 17.73383 116.40849 33929 ft 486 kts 329°
2026-05-07 23:55 17.79191 116.37205 33926 ft 486 kts 329°
2026-05-07 23:56 17.84998 116.33557 33931 ft 486 kts 329°
2026-05-07 23:56 17.90809 116.29902 33941 ft 486 kts 329°
2026-05-07 23:57 17.96611 116.26251 33932 ft 486 kts 329°
2026-05-07 23:57 18.02378 116.22619 33932 ft 486 kts 329°
2026-05-07 23:58 18.08192 116.18954 33936 ft 487 kts 329°
2026-05-07 23:58 18.14014 116.15281 33936 ft 488 kts 329°
2026-05-07 23:59 18.19840 116.11602 33939 ft 489 kts 329°
2026-05-07 23:59 18.25642 116.07937 33942 ft 489 kts 329°
2026-05-08 00:00 18.31471 116.04251 33940 ft 489 kts 329°
2026-05-08 00:00 18.37297 116.00564 33941 ft 488 kts 329°
2026-05-08 00:01 18.42134 115.97501 33938 ft 488 kts 329°
2026-05-08 00:01 18.47949 115.93816 33936 ft 488 kts 329°
2026-05-08 00:02 18.53769 115.90124 33943 ft 488 kts 329°
2026-05-08 00:02 18.59592 115.86428 33948 ft 488 kts 329°
2026-05-08 00:03 18.65417 115.82727 33941 ft 488 kts 329°
2026-05-08 00:03 18.71201 115.79049 33944 ft 488 kts 329°
2026-05-08 00:04 18.77020 115.75347 33946 ft 488 kts 329°
2026-05-08 00:04 18.82837 115.71641 33945 ft 487 kts 329°
2026-05-08 00:05 18.88639 115.67943 33946 ft 487 kts 329°
2026-05-08 00:05 18.94442 115.64243 33957 ft 486 kts 329°
2026-05-08 00:06 19.00238 115.60544 33944 ft 486 kts 329°
2026-05-08 00:06 19.05989 115.56870 33948 ft 485 kts 329°
2026-05-08 00:07 19.11760 115.53179 33950 ft 484 kts 329°
2026-05-08 00:07 19.17525 115.49490 33953 ft 483 kts 329°
2026-05-08 00:08 19.23241 115.45828 33954 ft 483 kts 329°
2026-05-08 00:08 19.28998 115.42136 33958 ft 483 kts 329°
2026-05-08 00:09 19.34757 115.38442 33955 ft 483 kts 329°
2026-05-08 00:09 19.40501 115.34755 33955 ft 483 kts 329°
2026-05-08 00:10 19.46234 115.31072 33956 ft 483 kts 329°
2026-05-08 00:10 19.51979 115.27377 33959 ft 483 kts 329°
2026-05-08 00:11 19.57693 115.23699 33960 ft 483 kts 329°
2026-05-08 00:11 19.63433 115.20001 33966 ft 483 kts 328°
2026-05-08 00:12 19.69183 115.16293 33964 ft 483 kts 328°
2026-05-08 00:12 19.74931 115.12583 33964 ft 483 kts 328°
2026-05-08 00:13 19.80637 115.08897 33967 ft 483 kts 328°
2026-05-08 00:13 19.86383 115.05181 33967 ft 483 kts 328°
2026-05-08 00:14 19.92124 115.01468 33970 ft 483 kts 328°
2026-05-08 00:14 19.97874 114.97747 33967 ft 484 kts 328°
2026-05-08 00:15 20.03641 114.94009 33973 ft 485 kts 328°
2026-05-08 00:15 20.09368 114.90294 33971 ft 485 kts 328°
2026-05-08 00:16 20.15135 114.86550 33969 ft 486 kts 328°
2026-05-08 00:16 20.20904 114.82801 33970 ft 486 kts 328°
2026-05-08 00:17 20.26676 114.79047 33972 ft 486 kts 328°
2026-05-08 00:17 20.32447 114.75290 33972 ft 486 kts 328°
2026-05-08 00:18 20.38210 114.71535 33975 ft 485 kts 328°
2026-05-08 00:18 20.43937 114.67800 33975 ft 485 kts 328°
2026-05-08 00:19 20.49682 114.64049 33975 ft 485 kts 328°
2026-05-08 00:19 20.52589 114.62150 33168 ft 497 kts 328°
2026-05-08 00:19 20.55560 114.60249 32342 ft 498 kts 331°
2026-05-08 00:20 20.58714 114.58711 31432 ft 499 kts 339°
2026-05-08 00:20 20.62038 114.57604 30571 ft 501 kts 345°
2026-05-08 00:20 20.65438 114.56880 29914 ft 497 kts 352°
2026-05-08 00:20 20.68877 114.56568 29183 ft 493 kts 355°
2026-05-08 00:21 20.72280 114.56332 28519 ft 488 kts 355°
2026-05-08 00:21 20.75655 114.56086 27903 ft 483 kts 355°
2026-05-08 00:21 20.78995 114.55811 27293 ft 479 kts 354°
2026-05-08 00:21 20.82313 114.55518 26691 ft 474 kts 354°
2026-05-08 00:22 20.85591 114.55262 26092 ft 471 kts 356°
2026-05-08 00:22 20.88814 114.55208 25503 ft 467 kts 359°
2026-05-08 00:22 20.92056 114.55248 24913 ft 465 kts 360°
2026-05-08 00:22 20.95276 114.55318 24314 ft 462 kts 360°
2026-05-08 00:23 20.98484 114.55388 23740 ft 459 kts 360°
2026-05-08 00:23 21.01675 114.55444 23084 ft 457 kts 359°
2026-05-08 00:23 21.04838 114.55488 22470 ft 453 kts 359°
2026-05-08 00:23 21.07977 114.55523 21889 ft 449 kts 359°
2026-05-08 00:24 21.11087 114.55553 21326 ft 444 kts 359°
2026-05-08 00:24 21.14173 114.55581 20768 ft 440 kts 359°
2026-05-08 00:24 21.17222 114.55608 20224 ft 437 kts 359°
2026-05-08 00:24 21.20262 114.55636 19680 ft 434 kts 359°
2026-05-08 00:25 21.23275 114.55663 19130 ft 431 kts 358°
2026-05-08 00:25 21.26269 114.55691 18579 ft 429 kts 358°
2026-05-08 00:25 21.29214 114.55719 17998 ft 427 kts 358°
2026-05-08 00:25 21.32179 114.55746 17417 ft 424 kts 358°
2026-05-08 00:26 21.35125 114.55774 16867 ft 420 kts 358°
2026-05-08 00:26 21.38036 114.55801 16332 ft 417 kts 358°
2026-05-08 00:26 21.40927 114.55828 15797 ft 413 kts 358°
2026-05-08 00:26 21.43791 114.55855 15281 ft 410 kts 358°
2026-05-08 00:27 21.46638 114.55882 14768 ft 407 kts 358°
2026-05-08 00:27 21.49438 114.55740 14218 ft 399 kts 347°
2026-05-08 00:27 21.52065 114.54867 13733 ft 393 kts 337°
2026-05-08 00:27 21.54603 114.53844 13433 ft 384 kts 339°
2026-05-08 00:28 21.57101 114.52939 13246 ft 373 kts 340°
2026-05-08 00:28 21.59506 114.52105 13075 ft 361 kts 340°
2026-05-08 00:28 21.61710 114.51009 12872 ft 343 kts 321°
2026-05-08 00:28 21.63368 114.49255 12653 ft 329 kts 310°
2026-05-08 00:29 21.64896 114.47430 12432 ft 329 kts 311°
2026-05-08 00:29 21.66461 114.45605 12210 ft 334 kts 311°
2026-05-08 00:29 21.68050 114.43762 11962 ft 337 kts 311°
2026-05-08 00:29 21.69644 114.41917 11726 ft 336 kts 311°
2026-05-08 00:30 21.71233 114.40078 11475 ft 335 kts 311°
2026-05-08 00:30 21.72814 114.38249 11231 ft 334 kts 311°
2026-05-08 00:30 21.74393 114.36422 11013 ft 331 kts 312°
2026-05-08 00:30 21.75948 114.34622 10759 ft 326 kts 312°
2026-05-08 00:31 21.77469 114.32862 10629 ft 315 kts 312°
2026-05-08 00:31 21.78937 114.31161 10528 ft 305 kts 312°
2026-05-08 00:31 21.80358 114.29515 10389 ft 296 kts 312°
2026-05-08 00:31 21.81746 114.27907 10149 ft 291 kts 312°
2026-05-08 00:32 21.83090 114.26348 10052 ft 282 kts 312°
2026-05-08 00:32 21.84428 114.24796 10008 ft 285 kts 312°
2026-05-08 00:32 21.85792 114.23213 10006 ft 291 kts 312°
2026-05-08 00:32 21.87182 114.21600 10007 ft 295 kts 311°
2026-05-08 00:33 21.88573 114.19986 9999 ft 294 kts 311°
2026-05-08 00:33 21.89847 114.18295 9993 ft 289 kts 302°
2026-05-08 00:33 21.90862 114.16438 9994 ft 287 kts 298°
2026-05-08 00:33 21.91803 114.14547 9897 ft 286 kts 297°
2026-05-08 00:34 21.92740 114.12647 9586 ft 286 kts 297°
2026-05-08 00:34 21.93682 114.10756 9213 ft 286 kts 297°
2026-05-08 00:34 21.94619 114.08894 8853 ft 285 kts 298°
2026-05-08 00:34 21.95568 114.07024 8514 ft 284 kts 298°
2026-05-08 00:35 21.96519 114.05162 8194 ft 283 kts 298°
2026-05-08 00:35 21.97472 114.03305 7860 ft 282 kts 298°
2026-05-08 00:35 21.98420 114.01459 7541 ft 281 kts 298°
2026-05-08 00:35 21.99367 113.99620 7227 ft 280 kts 298°
2026-05-08 00:36 22.00309 113.97791 6918 ft 279 kts 298°
2026-05-08 00:36 22.01247 113.95969 6626 ft 277 kts 298°
2026-05-08 00:36 22.02182 113.94154 6324 ft 276 kts 298°
2026-05-08 00:36 22.03114 113.92345 6003 ft 275 kts 298°
2026-05-08 00:37 22.04042 113.90542 5675 ft 275 kts 298°
2026-05-08 00:37 22.04968 113.88744 5355 ft 274 kts 298°
2026-05-08 00:37 22.05891 113.86950 5045 ft 273 kts 298°
2026-05-08 00:38 22.07722 113.83410 4389 ft 269 kts 302°
2026-05-08 00:38 22.09063 113.82015 3847 ft 273 kts 335°
2026-05-08 00:38 22.10898 113.81692 3577 ft 266 kts
2026-05-08 00:38 22.12722 113.81800 3370 ft 262 kts
2026-05-08 00:39 22.14546 113.81809 3161 ft 263 kts 359°
2026-05-08 00:39 22.16364 113.81792 2934 ft 259 kts 359°
2026-05-08 00:39 22.18152 113.81774 2717 ft 254 kts 359°
2026-05-08 00:39 22.19902 113.81754 2510 ft 249 kts 359°
2026-05-08 00:40 22.21617 113.81733 2317 ft 243 kts 359°
2026-05-08 00:40 22.23293 113.81712 2133 ft 238 kts 359°
2026-05-08 00:40 22.24943 113.81691 1940 ft 234 kts 358°
2026-05-08 00:40 22.26522 113.81674 1751 ft 225 kts
2026-05-08 00:41 22.27982 113.82086 1638 ft 214 kts 35°
2026-05-08 00:41 22.28880 113.83267 1638 ft 202 kts 64°
2026-05-08 00:41 22.29421 113.84613 1340 ft 188 kts 66°
2026-05-08 00:41 22.29801 113.85917 945 ft 180 kts 77°
2026-05-08 00:42 22.30157 113.87191 526 ft 170 kts 65°
2026-05-08 00:42 22.30649 113.88288 300 ft 163 kts 72°
2026-05-08 00:42 22.30961 113.89402 145 ft 166 kts 70°
2026-05-08 00:42 22.31286 113.90414 37 ft 165 kts 70°
2026-05-08 00:43 22.31491 113.91019 37 ft 152 kts 70°
2026-05-08 00:43 22.31784 113.91948 38 ft 120 kts 71°
2026-05-08 00:43 22.31934 113.92469 39 ft 50 kts 85°
2026-05-08 00:43 22.31882 113.92691 37 ft 10 kts 159°
2026-05-08 00:44 22.31827 113.92644 36 ft 11 kts 245°
2026-05-08 00:44 22.31802 113.92568 37 ft 11 kts 251°
2026-05-08 00:44 22.31778 113.92493 37 ft 11 kts 251°
2026-05-08 00:44 22.31751 113.92418 37 ft 11 kts 233°
2026-05-08 00:45 22.31716 113.92346 37 ft 11 kts 248°
2026-05-08 00:45 22.31694 113.92250 37 ft 18 kts 255°
2026-05-08 00:45 22.31656 113.92115 37 ft 19 kts 252°
2026-05-08 00:45 22.31560 113.92048 37 ft 19 kts 168°
2026-05-08 00:46 22.31436 113.92091 37 ft 19 kts 160°
2026-05-08 00:46 22.31312 113.92138 37 ft 19 kts 161°
2026-05-08 00:46 22.31230 113.92168 37 ft 19 kts 160°
2026-05-08 00:46 22.31068 113.92234 37 ft 19 kts 162°
2026-05-08 00:47 22.30944 113.92277 37 ft 19 kts 162°
2026-05-08 00:47 22.30819 113.92320 37 ft 19 kts 162°
2026-05-08 00:47 22.30740 113.92413 37 ft 19 kts 86°
2026-05-08 00:47 22.30771 113.92502 37 ft 19 kts 67°
2026-05-08 00:48 22.30821 113.92630 37 ft 19 kts 70°
2026-05-08 00:48 22.30858 113.92757 37 ft 19 kts 72°
2026-05-08 00:48 22.30898 113.92891 37 ft 19 kts 72°
2026-05-08 00:48 22.30938 113.93026 37 ft 19 kts 73°
2026-05-08 00:49 22.30931 113.93163 37 ft 19 kts 115°
2026-05-08 00:49 22.30940 113.93298 37 ft 19 kts 69°
2026-05-08 00:49 22.31012 113.93412 37 ft 19 kts 22°
2026-05-08 00:49 22.31139 113.93400 37 ft 19 kts 15°
2026-05-08 00:50 22.31188 113.93481 37 ft 7 kts 70°
2026-05-08 00:50 22.31189 113.93484 37 ft 0 kts 70°